Regional Weather Roundup
Issued by NWS

Home | Current Version | Previous Version | Graphics & Text | Print | Product List | Glossary On
Versions: 1 2 3 4 5 6 7 8 9 10 11 12 13 14 15 16 17 18 19 20 21 22 23 24 25 26 27 28 29 30 31 32 33 34 35 36 37 38 39 40 41 42 43 44 45 46 47 48 49 50
000
ASUS43 KMKX 221921
RWRWI

WISCONSIN REGIONAL WEATHER ROUNDUP
NATIONAL WEATHER SERVICE MILWAUKEE/SULLIVAN WI
100 PM CST WED FEB 22 2017

NOTE: "FAIR" INDICATES FEW OR NO CLOUDS BELOW 12,000 FEET WITH NO
SIGNIFICANT WEATHER AND/OR OBSTRUCTIONS TO VISIBILITY.

WIZ001-002-006>008-014>016-023>028-222000-
NORTHWEST WISCONSIN

CITY           SKY/WX    TMP DP  RH WIND       PRES   REMARKS
SUPERIOR ARPT  CLOUDY    43  36  75 E9        29.63R
ASHLAND        CLOUDY    40  35  83 NE9       29.62S WCI  34
HAYWARD        LGT RAIN  44  42  93 E6        29.56F
SIREN          CLOUDY    45  45 100 CALM      29.56F
CUMBERLAND     CLOUDY    45  43  93 SE8       29.54F
RICE LAKE      RAIN      48  42  81 CALM      29.56F
CHETEK         CLOUDY    50  42  73 CALM      29.57F
LADYSMITH      CLOUDY    50  41  70 N5        29.59S
EAU CLAIRE     PTSUNNY   55  40  56 NE5       29.54F
MENOMONIE      MOSUNNY   53  41  63 NE3       29.54F
NEW RICHMOND   CLOUDY    51  43  74 NW8       29.54F
OSCEOLA        CLOUDY    47  47 100 NW5       29.57F
$$

WIZ003>005-009-010-017-018-222000-
NORTH CENTRAL WISCONSIN

CITY           SKY/WX    TMP DP  RH WIND       PRES   REMARKS
MANITOWISH WTR LGT RAIN  44  44  99 CALM      29.59F
ARBOR VITAE    LGT RAIN  52  44  74 N7          N/A
WOODRUFF       LGT RAIN  52  44  74 N7          N/A
RHINELANDER    CLOUDY    55  41  59 VRB5      29.57S
EAGLE RIVER    CLOUDY    49  38  66 NW5       29.58R
LAND O LAKES   DRIZZLE   47  40  74 N7        29.59F
PHILLIPS       CLOUDY    49  41  75 NE7       29.56F
TOMAHAWK       CLOUDY    52  38  59 NW5       29.56F
MEDFORD        CLOUDY    51  40  65 S3        29.55F
MERRILL        NOT AVBL
$$

WIZ029-030-035-036-043>047-222000-
CENTRAL WISCONSIN

CITY           SKY/WX    TMP DP  RH WIND       PRES   REMARKS
WAUSAU         MOSUNNY   53  36  52 S7        29.54F
MOSINEE        PTSUNNY   55  37  50 SW6       29.57F
MARSHFIELD     CLOUDY    56  37  49 SW7       29.55F
STEVENS POINT  MOSUNNY   57  36  45 SW8       29.55F
WAUPACA        MOSUNNY   68  38  33 SW6       29.54F
WAUTOMA        MOSUNNY   67  44  43 SW12      29.55F
WISC RAPIDS    CLOUDY    61  37  41 SW8       29.56F
CAMP DOUGLAS   PTSUNNY   63  39  42 SW10      29.56F
$$

WIZ011>013-019>022-031-037>040-048>050-222000-
NORTHEAST WISCONSIN

CITY           SKY/WX    TMP DP  RH WIND       PRES   REMARKS
ANTIGO         CLOUDY    50  39  66 CALM      29.57S
SHAWANO        CLOUDY    61  44  53 SW9       29.55F
OCONTO         PTSUNNY   59  44  57 SW7       29.55F
STURGEON BAY   MOSUNNY   51  44  77 SE9       29.58F
GREEN BAY      MOSUNNY   61  50  67 SW13      29.56F
MANITOWOC      MOSUNNY   50  44  80 S9        29.58F
APPLETON       PTSUNNY   63  45  51 SW9       29.55F
CLINTONVILLE   CLOUDY    61  43  51 CALM      29.55F
OSHKOSH        SUNNY     63  49  60 SW15G22   29.56F
$$

WIZ032>034-041-042-053>061-222000-
SOUTHWEST WISCONSIN

CITY           SKY/WX    TMP DP  RH WIND       PRES   REMARKS
LA CROSSE      MOSUNNY   59  38  45 S7        29.56F
SPARTA         SUNNY     60  38  45 W7        29.57S
VIROQUA        MOSUNNY   57  39  50 S13       29.56F
BOSCOBEL       MOSUNNY   65  42  43 SW7       29.59F
PRAIRIE DU CHI CLOUDY    64  38  39 SW7       29.57F
PLATTEVILLE    SUNNY     67  47  48 SW16G22   29.60F
$$

WIZ056-057-062-063-064-067-068-222000-
SOUTH CENTRAL WISCONSIN

CITY           SKY/WX    TMP DP  RH WIND       PRES   REMARKS
REEDSBURG      MOSUNNY   64  44  47 SW17      29.56F
BARABOO/DELLS  MOSUNNY   65  43  43 SW12G18   29.56F
LONE ROCK      MOSUNNY   65  44  46 SW13G20   29.58F
MINERAL POINT  SUNNY     68  45  42 SW18      29.60F
MADISON        PTSUNNY   66  48  52 S16       29.59F
MIDDLETON      SUNNY     69  45  42 SW20G26   29.58F
WATERTOWN      SUNNY     64  49  57 SW25      29.60F
MONROE         SUNNY     64  50  59 SW22      29.62F
JANESVILLE     MOSUNNY   68  50  52 SW14G22   29.63F
$$

WIZ051-052-058>065-066-070>072-222000-
SOUTHEAST WISCONSIN

CITY           SKY/WX    TMP DP  RH WIND       PRES   REMARKS
MILWAUKEE      MOSUNNY   66  51  58 SW20G28   29.64F
WAUKESHA       SUNNY     64  48  55 SW21G29   29.64F
MILWAUKEE/TIMM SUNNY     66  45  45 SW15G24   29.63F
RACINE         SUNNY     67  52  58 SW13G23   29.66F
KENOSHA        SUNNY     65  52  62 SW23      29.66F
FOND DU LAC    SUNNY     65  47  52 SW18G26   29.56F
SHEBOYGAN      SUNNY     68  44  42 S18G26    29.57F
WEST BEND      SUNNY     68  45  42 SW16      29.59F
JUNEAU         SUNNY     64  50  61 S16       29.60F
$$

LSZ147-162-222000-
LAKE SUPERIOR

STATION/POSITION TIME  TEMP    WIND        PRES    WAVE
                       AIR SEA DIR/SP/G            HT/PER
                 (UTC) (F)     (DEG/KT/KT) (MB)    (FT/S)
DEVILS ISLAND    1900   35      50/  8/  8 1004.1R
PORT WING        1900   36      40/  9/ 11 1003.4
SAXON HARBOR     1840   35     330/  5/  7 1003.0F
$$

LMZ867-665-643>646-222000-
LAKE MICHIGAN

STATION/POSITION TIME  TEMP    WIND        PRES    WAVE
                       AIR SEA DIR/SP/G            HT/PER
                 (UTC) (F)     (DEG/KT/KT) (MB)    (FT/S)
CHAMBERS ISLAND  1840   53     150/  5/  9 1001.4F
NORTHPORT PIER   1840   44     150/ 11/ 16 1002.0F
SISTER BAY       1835   57     150/ 12/ 17   N/A
KEWAUNEE LAKESHO 1842   39     180/ 14/ 15 1001.6F
SHEBOYGAN LAKESH 1900   42     170/ 22/ 23 1001.8F
PORT WASHINGTON  1900   52     190/  8/ 14 1003.4
MILWAUKEE LAKESH 1900   62     220/ 13/ 15   N/A
KENOSHA   LAKESH 1900   64     210/ 16/ 20 1004.4
$$

TC  - TEMPERATURE IN CELSIUS
VSB - VISIBILITY IN STATUTE MILES
WCI - WIND CHILL INDEX
HX  - HEAT INDEX





USA.gov is the U.S. government's official web portal to all federal, state and local government web resources and services.